OBJECT Q, 43772

Orbit data source: Space-Track

You're viewing an Uncataloged Satellite

Recently launched and/or uncataloged satellites may have evolving metadata. Metadata may include but not limited to: Owner, Maufacturer, Bus, Motor, and Mission.

OBJECT Q, 43772 is a satellite in SSO that was launched on Mon, 03 Dec 2018 UTC via an FALCON 9 launch vehicle from the Air Force Western Test Range (AFWTR). Unknown objects in Earth's orbit typically refer to objects detected orbiting the Earth but have not yet been identified or cataloged. These objects could be anything from previously untracked satellites, spent rocket stages, debris from satellite collisions, or even natural meteoroids temporarily captured by Earth's gravity.

Loading next visibility...
Identifier
43772, 2018-099Q
Orbit
SSO
Country
Flag of TBDTBD
Related business
Manufacturer
GaTech
Mission
Non-operational Amateur Technology
Bus & Motor
CUBESAT 1.5U, Unknown motor
Mass
2 kg wet, 2 kg dry
Launch date (UTC)
2018-12-03 (7 years ago)
Launch vehicle
FALCON 9
Launch site
Air Force Western Test Range (AFWTR)
Object type
Unknown
Shape & HBR
Box + 2 Pan, 0.1 m
Radar Cross Section
0.025 m², Medium (>0.1 m² and < 1m²)

Expand to show TLE details & history
Last TLE update: 21 hours ago

TLE from 21 hours ago
0 OBJECT Q
1 43772U 18099Q   26124.44305587  .00156914  00000-0  12426-2 0  9994
2 43772  97.4199 202.7062 0002363 259.5402 100.5595 15.70840770407762
Epoch: 2026-05-04T10:38Z
TLE epoch observation values (Epoch: 2026-05-04T10:38:00.027Z)
Latitude
0.00007°
Longitude
-179.1261°
Altitude
359.943 km
Speed
7.693 km/s
True Right ascension
13h 30m 49s
True Declination
0° 00' 00"
Sunlit
Object was in full shadow at epoch
Visualization orbit readout
Latitude
Unknown
Longitude
Unknown
Altitude
Unknown
Speed
Unknown
Apparent Right ascension
Unknown
Apparent Declination
Unknown
Sunlit
N/A
Visualization observer readout
Local Sidereal Time
15:46:41
Azimuth
Unknown
Elevation
Unknown
Doppler factor
Unknown
Orbital elements
Apogee altitude
354.983 km
Perigee altitude
351.801 km
Semi-major axis
6,731.529 km
Eccentricity
0.00024
Inclination
97.4199°
RAAN
202.7062°
Arg. of periapsis
259.5402°
True anomaly
100.58612°
Mean anomaly
100.5595°
Eccentric anomaly
100.57281°
Mean motion
3.92982 °/min
Orbital period
91.61 mins
BSTAR
0.0012426
Loading maneuver chart data...
Computing Atmospheric mass density...
Loading historical data...
Loading historical data...
Loading historical data...
Loading historical data...
Loading historical data...
Loading historical data...
Loading historical data...

Documentation

Showing up to 5 results
|